Weather History for Edwards AFB, CA

Change the Weather History Date:

Wednesday, May 1, 2013

  Actual Average Record
Temperature  
Mean Temperature 68 °F -  
Max Temperature 83 °F 76 °F 91 °F (2006)
Min Temperature 52 °F 48 °F 35 °F (2011)
Cooling Degree Days 2    
Growing Degree Days 18 (Base 50)    
Moisture  
Dew Point 12 °F    
Average Humidity 20    
Maximum Humidity 58    
Minimum Humidity 4    
Precipitation  
Precipitation 0.00 in - - ()
Sea Level Pressure  
Sea Level Pressure 29.98 in    
Wind  
Wind Speed 12 mph (ENE)    
Max Wind Speed 22 mph    
Max Gust Speed 31 mph    
Visibility 15 miles    
Events      
Averages and records for this station are not official NWS values.
T = Trace of Precipitation, MM = Missing Value Source: NWS Daily Summary

Daily Weather History Graph

Daily Weather History Graph

Search for Another Location

Airport:

Trip Planner

Search our weather history database for the weather conditions in past years. The results will help you decide how hot, cold, wet, or windy it might be!

Date:

Astronomy

May. 01, 2013 Rise Set
Actual Time 6:00 AM PDT 7:37 PM PDT
Civil Twilight 5:33 AM PDT 8:04 PM PDT
Nautical Twilight 5:01 AM PDT 8:36 PM PDT
Astronomical Twilight 4:26 AM PDT 9:11 PM PDT
Moon 12:49 AM PDT (5/1) 11:44 AM PDT (5/1)
Length of Visible Light 14h 30m
Length of Day
13h 36m
Waning Gibbous, 58% of the Moon is Illuminated
May 1
Waning Gibbous
May 2
Last Quarter
May 9
New
May 17
First Quarter
May 24
Full

Hourly Weather History & Observations

Time (PDT) Temp. Dew Point Humidity Pressure Visibility Wind Dir Wind Speed Gust Speed Precip Events Conditions
12:58 AM 63.1 °F 39.4 °F 42% 29.75 in 10.0 mi SSW 17.3 mph 21.9 mph N/A   Clear
1:58 AM 61.3 °F 39.9 °F 45% 29.77 in 10.0 mi SW 12.7 mph - N/A   Clear
2:58 AM 59.2 °F 40.3 °F 50% 29.78 in 10.0 mi SSW 10.4 mph - N/A   Clear
3:58 AM 58.3 °F 39.7 °F 50% 29.82 in 10.0 mi SW 10.4 mph - N/A   Clear
4:58 AM 55.9 °F 41.0 °F 57% 29.85 in 10.0 mi West 2.3 mph - N/A   Clear
5:58 AM 52.5 °F 38.3 °F 58% 29.90 in 20.0 mi East 4.6 mph - N/A   Clear
6:20 AM 53.6 °F 35.6 °F 51% 29.96 in 20.0 mi NE 3.5 mph - N/A   Clear
6:58 AM 54.0 °F 37.4 °F 54% 29.94 in 20.0 mi ENE 5.8 mph - N/A   Clear
7:58 AM 58.8 °F 36.7 °F 44% 29.97 in 30.0 mi NE 4.6 mph - N/A   Clear
8:58 AM 67.8 °F 33.4 °F 28% 29.99 in 30.0 mi ENE 9.2 mph - N/A   Clear
9:23 AM 73.4 °F 15.8 °F 11% 30.04 in 30.0 mi ENE 18.4 mph 24.2 mph N/A   Clear
9:58 AM 73.8 °F 11.7 °F 9% 29.99 in 30.0 mi ENE 18.4 mph - N/A   Clear
10:58 AM 77.4 °F 1.6 °F 5% 30.01 in 20.0 mi ENE 15.0 mph 25.3 mph N/A   Clear
11:58 AM 79.0 °F 2.8 °F 5% 30.02 in 20.0 mi ENE 17.3 mph 27.6 mph N/A   Clear
12:58 PM 80.2 °F 2.7 °F 5% 30.02 in 20.0 mi ENE 19.6 mph - N/A   Clear
1:39 PM 80.6 °F -0.4 °F 4% 30.07 in 20.0 mi NE 21.9 mph 31.1 mph N/A   Clear
1:58 PM 82.0 °F 0.1 °F 4% 30.02 in 20.0 mi NE 16.1 mph 21.9 mph N/A   Clear
2:58 PM 82.4 °F 0.3 °F 4% 30.02 in 30.0 mi ENE 18.4 mph 24.2 mph N/A   Clear
3:58 PM 82.9 °F 0.9 °F 4% 30.01 in 40.0 mi NE 17.3 mph 24.2 mph N/A   Clear
4:58 PM 83.3 °F 1.0 °F 4% 30.01 in 50.0 mi ENE 15.0 mph - N/A   Clear
5:58 PM 82.2 °F -5.8 °F 4% 30.01 in 50.0 mi ENE 17.3 mph - N/A   Clear
6:58 PM 80.1 °F -7.4 °F 4% 30.03 in 60.0 mi ENE 13.8 mph - N/A   Clear
7:58 PM 73.8 °F -11.7 °F 4% 30.04 in 50.0 mi ENE 9.2 mph - N/A   Clear
8:55 PM 66.4 °F -11.2 °F 4% 30.06 in 30.0 mi East 9.2 mph - N/A   Clear
9:55 PM 60.8 °F -11.2 °F 5% 30.09 in 30.0 mi NE 5.8 mph - N/A   Clear
9:58 PM 61.2 °F -10.5 °F 5% 30.10 in 30.0 mi NE 5.8 mph - N/A   Clear
10:58 PM 64.0 °F -13.0 °F 4% 30.11 in 10.0 mi NE 5.8 mph - N/A   Clear
11:58 PM 57.7 °F -9.2 °F 6% 30.11 in 10.0 mi NNW 6.9 mph - N/A   Clear